Simultaneous Nadir Overpasses (SNOs) Predictions

Prediction of SNOs between AQUA and NOAA-19 Satellite Orbit:

Table of predicted SNOs for the next 14.0 days since TLE Epoch: 6/1/2012
Index Date (AQUA) Time (AQUA) AQUA Lat,Lon Date (NOAA-19) Time (NOAA-19) NOAA-19 Lat,Lon Distance(km) Time Diff (sec)
1 06/02/2012 11:01:39 -49.76, 48.26 06/02/2012 11:01:43 -49.76, 48.24 0.97 4
2 06/02/2012 11:39:09 81.07, -36.64 06/02/2012 11:40:22 80.41, -38.56 82.02 73
3 06/04/2012 14:57:30 46.03, 168.08 06/04/2012 14:56:21 45.97, 168.26 15.22 69
4 06/04/2012 15:45:05 -52.80, -21.47 06/04/2012 15:45:32 -52.80, -21.48 0.15 27
5 06/06/2012 19:41:47 46.05, 97.01 06/06/2012 19:41:02 46.05, 97.12 8.09 45
6 06/06/2012 20:28:49 -54.76, -91.59 06/06/2012 20:29:40 -54.75, -91.62 1.74 51
7 06/09/2012 00:25:59 46.35, 26.05 06/09/2012 00:25:39 46.36, 26.07 1.44 20
8 06/09/2012 01:11:53 -59.02,-160.26 06/09/2012 01:13:07 -58.99,-160.20 4.81 74
9 06/11/2012 05:09:33 48.90, -44.03 06/11/2012 05:09:37 48.90, -44.04 0.47 4
10 06/13/2012 09:05:15 -46.00, 76.12 06/13/2012 09:04:16 -45.99, 76.30 14.05 59




NCC Satellite Simultaneous Nadir Overpasses (SNOs) Prediction Service
